Terminal Aerodrome Forecast
Issued by NWS

Home | Current Version | Previous Version | Graphics & Text | Print | Product List | Glossary On
Versions: 1 2 3 4 5 6 7 8 9 10 11 12 13 14 15 16 17 18 19 20 21 22 23 24
520
FTUS43 KLOT 252320
TAFORD
TAF
KORD 252320Z 2600/2706 28012G18KT P6SM SCT040 BKN060
     FM260200 27010KT P6SM SCT060
     FM261500 29015G24KT P6SM BKN050
     FM262200 32014G22KT P6SM BKN060
     FM270000 02012KT P6SM SCT060=

USA.gov is the U.S. government's official web portal to all federal, state and local government web resources and services.